Ft Lauderdale, FL

3:25 AM EDT on April 27, 2017 (GMT -0400)
Fort Lauderdale-Hollywood International

Weather History for KFLL - January, 2012

Change the Weather History Date:

Tuesday, January 24, 2012

  Actual Average Record
Temperature  
Mean Temperature 76 °F 69 °F  
Max Temperature 81 °F 77 °F 86 °F (1973)
Min Temperature 70 °F 62 °F 34 °F (1960)
Degree Days  
Heating Degree Days 0 1  
Month to date heating degree days 47 40  
Since 1 July heating degree days 48 72  
Cooling Degree Days 11 6  
Month to date cooling degree days 91 130  
Year to date cooling degree days 91 130  
Growing Degree Days 24 (Base 50)    
Moisture  
Dew Point 65 °F    
Average Humidity 73    
Maximum Humidity 84    
Minimum Humidity 62    
Precipitation  
Precipitation 0.00 in 0.17 in 4.37 in (1925)
Month to date precipitation T 2.40  
Year to date precipitation T 2.40  
Snow  
Snow 0.00 in - - ()
Month to date snowfall 0.0  
Since 1 July snowfall 0.0  
Snow Depth 0.00 in    
Sea Level Pressure  
Sea Level Pressure 30.13 in    
Wind  
Wind Speed 9 mph (ESE)    
Max Wind Speed 17 mph    
Max Gust Speed 22 mph    
Visibility 10 miles    
Events      
T = Trace of Precipitation, MM = Missing Value Source: NWS Daily Summary

Daily Weather History Graph

Daily Weather History Graph

Search for Another Location

Airport or City:

Trip Planner

Search our weather history database for the weather conditions in past years. The results will help you decide how hot, cold, wet, or windy it might be!

Date:

Astronomy

Jan. 24, 2012 Rise Set
Actual Time 7:07 AM EST 5:57 PM EST
Civil Twilight 6:43 AM EST 6:21 PM EST
Nautical Twilight 6:15 AM EST 6:49 PM EST
Astronomical Twilight 5:47 AM EST 7:17 PM EST
Moon 7:48 AM EST (1/24) 7:32 PM EST (1/24)
Length of Visible Light 11h 38m
Length of Day
10h 49m
New Moon, 2% of the Moon is Illuminated
Jan 24
New Moon
Jan 30
First Quarter
Feb 7
Full
Feb 14
Last Quarter
Feb 21
New

Hourly Weather History & Observations

Time (EST) Temp. Dew Point Humidity Pressure Visibility Wind Dir Wind Speed Gust Speed Precip Events Conditions
12:53 AM 72.0 °F 64.9 °F 78% 30.10 in 10.0 mi ESE 6.9 mph - N/A   Partly Cloudy
1:53 AM 72.0 °F 64.9 °F 78% 30.10 in 10.0 mi SE 6.9 mph - N/A   Partly Cloudy
2:53 AM 72.0 °F 64.9 °F 78% 30.09 in 10.0 mi SE 9.2 mph - N/A   Partly Cloudy
3:53 AM 72.0 °F 64.9 °F 78% 30.10 in 10.0 mi ESE 8.1 mph - N/A   Partly Cloudy
4:53 AM 71.1 °F 64.9 °F 81% 30.10 in 10.0 mi SE 6.9 mph - N/A   Partly Cloudy
5:53 AM 70.0 °F 64.9 °F 84% 30.12 in 10.0 mi SE 5.8 mph - N/A   Partly Cloudy
6:53 AM 70.0 °F 64.0 °F 81% 30.13 in 10.0 mi SE 4.6 mph - N/A   Partly Cloudy
7:53 AM 73.0 °F 64.9 °F 76% 30.14 in 10.0 mi ESE 6.9 mph - N/A   Partly Cloudy
8:53 AM 75.9 °F 66.0 °F 71% 30.15 in 10.0 mi ESE 10.4 mph - N/A   Partly Cloudy
9:53 AM 77.0 °F 64.9 °F 66% 30.18 in 10.0 mi ESE 13.8 mph - N/A   Partly Cloudy
10:53 AM 78.1 °F 64.0 °F 62% 30.18 in 10.0 mi ESE 12.7 mph - N/A   Partly Cloudy
11:53 AM 79.0 °F 64.9 °F 62% 30.16 in 10.0 mi SE 12.7 mph - N/A   Partly Cloudy
12:53 PM 78.1 °F 64.9 °F 64% 30.14 in 10.0 mi ESE 12.7 mph 19.6 mph N/A   Partly Cloudy
1:53 PM 79.0 °F 64.9 °F 62% 30.12 in 10.0 mi East 12.7 mph - N/A   Partly Cloudy
2:53 PM 78.1 °F 64.9 °F 64% 30.10 in 10.0 mi SE 12.7 mph - N/A   Partly Cloudy
3:53 PM 78.1 °F 64.9 °F 64% 30.11 in 10.0 mi SE 11.5 mph - N/A   Partly Cloudy
4:53 PM 75.9 °F 64.9 °F 69% 30.11 in 10.0 mi SE 8.1 mph - N/A   Partly Cloudy
5:53 PM 75.0 °F 64.9 °F 71% 30.12 in 10.0 mi SE 6.9 mph - N/A   Partly Cloudy
6:53 PM 73.0 °F 66.0 °F 79% 30.13 in 10.0 mi ESE 5.8 mph - N/A   Scattered Clouds
7:53 PM 73.0 °F 66.0 °F 79% 30.15 in 10.0 mi East 6.9 mph - N/A   Partly Cloudy
8:53 PM 73.0 °F 66.0 °F 79% 30.16 in 10.0 mi ESE 6.9 mph - N/A   Partly Cloudy
9:53 PM 73.0 °F 66.0 °F 79% 30.16 in 10.0 mi ESE 8.1 mph - N/A   Partly Cloudy
10:53 PM 73.9 °F 66.0 °F 76% 30.16 in 10.0 mi ESE 9.2 mph - N/A   Scattered Clouds
11:53 PM 73.0 °F 64.9 °F 76% 30.15 in 10.0 mi ESE 10.4 mph - N/A   Partly Cloudy